Wind_Speed
23 25 26 28 30 33 35 36 38 40 42 43 43 44 43 43 44 43 43 42 42 42 42 41 40 40 38 38 37 36 35 35 35 36 35 35 35 33 33 32 31 30 29
22 25 27 29 31 33 35 36 37 39 41 42 42 43 43 44 45 45 44 43 43 43 43 42 42 42 41 39 36 36 36 35 35 34 36 37 35 33 33 32 31 30 29
23 25 26 28 30 32 33 35 36 38 40 41 42 42 43 43 44 44 44 43 43 43 44 44 43 43 42 41 39 37 36 35 35 36 37 36 35 33 32 32 31 30 29
23 25 27 28 30 32 33 35 36 38 39 41 42 43 43 44 44 44 44 43 43 43 43 44 44 43 43 42 40 39 38 36 35 36 37 37 36 35 33 33 32 31 31
24 25 27 28 30 32 34 35 36 38 39 40 42 43 44 44 44 44 44 44 44 44 44 44 44 43 43 41 40 39 38 38 37 36 37 38 37 36 35 33 32 33 33
25 26 28 30 31 33 35 36 37 38 39 40 41 42 43 43 43 44 44 44 44 44 43 42 42 42 42 41 41 40 40 39 38 37 37 37 37 37 37 35 34 34 34
27 28 30 31 33 35 36 37 38 39 40 41 42 42 43 43 42 42 42 43 43 43 43 42 41 41 41 41 41 41 41 42 41 40 39 38 38 39 40 38 37 36 36
29 30 32 34 35 36 37 38 39 39 40 41 41 42 42 42 42 43 43 43 43 43 43 44 43 42 42 42 42 42 42 43 44 43 42 40 39 39 40 40 39 38 38
30 32 34 36 37 38 39 40 41 41 41 41 41 41 42 42 42 43 43 44 44 44 44 45 45 44 44 44 44 44 43 44 45 45 45 44 43 40 40 41 41 40 39
32 34 36 37 38 39 40 41 42 42 41 41 41 41 42 42 42 42 42 43 43 45 46 47 48 48 49 48 48 48 47 47 46 46 47 47 48 45 43 42 42 42 42
32 34 36 38 39 41 41 42 43 42 42 42 41 41 42 42 42 42 42 43 44 46 47 48 50 51 52 53 52 52 51 51 50 48 48 50 50 49 47 45 44 44 44
33 35 37 39 41 42 43 43 44 43 43 43 42 42 42 42 42 43 43 44 45 46 47 49 51 53 55 55 56 55 55 55 55 53 52 52 52 51 50 48 47 46 45
35 37 39 41 42 43 43 44 44 44 44 43 43 42 42 42 43 43 44 45 46 47 48 49 50 52 54 56 57 57 58 58 57 57 57 56 55 54 53 51 50 48 47
37 39 41 43 44 44 45 45 45 44 44 44 43 43 43 43 43 44 45 46 47 48 48 48 49 51 52 54 56 57 57 58 59 59 59 59 59 57 57 54 53 52 49
39 41 43 44 45 45 45 45 45 45 44 44 43 43 43 44 44 44 45 46 47 47 47 48 48 48 49 50 51 53 54 55 56 58 58 60 61 60 60 58 56 55 53
40 42 44 45 45 45 46 46 46 45 44 44 43 43 43 44 44 45 46 46 46 46 46 46 45 44 44 44 45 47 49 50 52 55 57 58 60 61 63 61 59 59 57
40 42 44 46 46 46 46 47 46 45 44 44 43 44 43 43 44 45 45 45 45 44 44 44 42 40 40 41 41 43 45 47 49 52 54 55 58 60 62 63 62 62 60
42 44 45 46 47 47 47 47 46 45 44 44 43 44 43 44 44 45 44 44 43 42 42 41 39 37 37 36 37 39 41 43 45 48 52 53 55 57 60 62 63 63 62
43 44 46 47 47 47 47 47 46 45 44 43 43 43 43 44 44 44 43 42 41 40 40 38 36 34 32 30 30 31 34 36 39 43 47 50 52 53 55 58 61 62 63
43 44 45 47 47 47 47 47 46 45 44 43 43 43 44 44 43 43 42 40 39 39 37 36 33 31 28 25 23 24 26 28 32 37 41 45 47 49 51 53 57 59 60
43 44 45 47 48 48 47 47 46 44 43 43 43 43 44 44 42 41 40 39 38 37 36 33 31 28 24 21 19 19 20 22 26 31 36 41 43 44 46 49 52 55 57
43 44 45 47 48 48 47 46 45 44 43 43 43 43 43 43 41 40 39 37 36 35 33 31 29 25 22 18 16 14 15 18 21 26 31 36 39 40 42 44 47 50 53
43 43 45 46 48 48 48 47 45 44 42 42 42 42 42 41 40 39 37 35 34 32 31 30 27 23 20 16 14 11 11 14 18 22 27 31 34 36 38 39 42 45 48
42 43 44 46 47 48 48 47 45 43 42 41 41 41 41 40 39 38 36 35 33 31 31 29 26 22 18 14 11 8 7 11 16 20 23 27 30 33 33 35 37 40 43
42 43 44 46 47 48 48 47 45 43 41 40 40 40 40 40 38 37 36 35 32 31 29 27 24 21 17 13 9 6 7 10 15 19 22 24 27 29 30 31 32 35 39
42 43 44 45 47 48 47 46 45 43 41 40 39 39 39 39 38 37 35 34 32 30 28 26 23 20 16 11 7 3 6 11 14 18 21 23 25 26 28 28 30 32 35
Wind_Direction
281 282 282 282 282 283 284 284 285 286 287 287 287 288 288 289 288 288 288 287 285 284 283 282 282 282 281 280 279 278 274 269 264 259 254 253 252 253 251 248 244 242 239
285 284 285 286 286 286 287 287 288 289 289 289 289 289 289 289 289 289 288 287 285 283 282 282 281 280 280 279 276 274 273 269 262 258 254 253 250 249 248 246 244 239 236
294 292 292 293 292 292 292 293 293 293 293 292 291 291 291 290 290 289 288 286 284 283 281 280 279 278 277 277 274 273 272 267 261 254 252 252 249 248 246 244 242 238 234
303 302 301 300 300 300 299 298 298 297 296 295 294 294 294 293 293 292 290 289 287 285 283 282 280 278 276 275 273 271 269 264 262 256 252 251 250 244 242 241 238 235 232
312 311 310 309 308 307 306 305 304 302 300 298 298 297 297 297 296 294 293 291 289 287 285 282 281 278 276 273 270 268 265 263 260 257 252 249 246 242 240 238 235 232 230
320 319 317 316 315 313 312 311 310 308 305 303 301 300 299 298 297 295 294 293 291 288 286 283 281 279 276 273 270 266 263 260 258 256 253 248 244 241 239 235 232 230 228
323 322 321 320 318 317 316 315 314 312 309 306 304 302 301 299 297 296 294 293 292 290 287 285 283 281 278 274 270 266 263 259 257 253 251 247 243 240 237 234 231 229 228
325 325 324 323 322 321 319 317 316 314 312 309 306 304 302 300 298 297 295 293 292 290 287 285 283 281 278 275 271 267 263 260 257 254 250 247 245 241 238 235 231 227 226
326 326 326 326 325 323 321 319 317 316 313 310 307 304 302 300 298 296 294 292 290 288 286 283 281 279 277 274 272 269 264 259 255 253 249 247 245 243 237 234 231 227 225
327 327 328 327 326 324 322 320 318 316 314 312 308 305 303 300 298 296 293 291 289 287 285 283 281 278 276 273 271 268 264 260 255 252 248 246 244 242 239 234 230 226 224
327 327 327 327 326 325 323 321 319 317 315 313 310 307 304 303 300 298 296 294 291 288 286 283 281 279 276 273 270 267 264 260 255 252 248 245 242 240 238 235 230 227 225
328 328 328 328 327 325 323 322 320 319 317 315 313 310 308 305 303 300 299 297 295 291 288 286 282 279 276 273 269 266 262 259 254 250 247 244 241 239 238 236 233 228 223
328 329 329 328 327 326 324 323 322 320 319 317 314 312 309 307 305 303 301 299 297 295 292 289 286 282 277 273 269 265 261 257 253 249 245 242 240 237 236 234 232 229 225
329 330 330 330 329 327 326 325 323 322 320 318 316 314 312 311 309 307 305 303 301 299 296 293 289 284 280 274 269 265 260 256 252 248 244 241 238 236 234 232 231 229 228
330 331 331 331 330 329 328 327 326 324 322 321 319 317 315 313 312 311 309 308 306 303 300 297 292 288 282 276 269 264 259 254 250 246 243 240 237 235 233 231 229 228 227
331 331 332 331 331 331 330 328 327 326 325 323 321 319 318 317 316 315 313 312 310 308 305 301 297 291 285 278 270 264 258 253 248 244 241 238 235 233 232 231 228 226 225
332 333 333 333 333 332 332 331 330 328 327 325 324 323 321 320 319 319 317 316 315 313 310 307 301 296 288 280 271 264 258 252 247 243 238 235 232 231 229 229 228 226 224
335 335 335 335 335 334 333 333 331 330 329 328 326 325 324 323 323 323 321 320 319 318 315 312 307 302 294 284 274 266 260 252 245 240 235 232 230 229 227 226 226 226 224
335 336 336 336 337 336 335 334 333 332 331 330 329 328 326 326 326 326 324 323 323 321 319 318 313 308 302 292 279 268 259 250 241 234 230 228 227 226 225 224 224 225 225
335 336 337 338 338 338 337 336 335 333 332 331 331 330 329 329 329 329 328 327 327 326 324 323 318 315 310 300 286 272 260 248 237 229 225 223 223 223 223 222 222 222 223
335 336 338 339 340 339 338 337 336 335 334 333 333 332 331 332 332 332 331 331 331 330 329 328 324 320 316 307 294 276 260 243 234 225 221 219 219 220 222 221 220 220 221
335 336 338 339 340 340 339 339 338 337 336 335 335 334 334 334 335 334 334 334 334 334 334 332 330 326 320 311 301 280 256 239 227 218 214 213 214 216 218 218 217 217 218
335 336 337 339 340 340 340 340 339 338 338 337 337 337 336 337 337 336 337 337 336 337 336 336 334 331 327 319 307 283 254 230 215 208 205 206 208 210 212 213 214 214 216
334 335 337 339 340 341 341 341 341 340 339 339 339 339 339 340 339 338 338 339 337 338 338 338 336 334 330 324 312 284 245 215 202 198 197 198 201 203 204 207 210 211 212
334 335 336 338 340 341 342 341 341 341 341 340 340 341 342 343 342 341 340 339 339 339 339 340 338 336 333 330 319 280 226 200 193 192 192 192 193 196 198 201 203 205 207
333 334 336 337 339 341 342 342 342 342 342 342 342 342 344 345 345 345 344 341 339 339 341 342 341 339 336 332 323 277 212 194 188 187 189 189 188 190 192 195 198 199 201
Height
5857 5856 5854 5852 5850 5848 5845 5842 5840 5837 5833 5831 5827 5825 5822 5819 5816 5813 5811 5809 5807 5805 5804 5802 5802 5800 5799 5799 5798 5797 5796 5796 5797 5798 5801 5805 5808 5811 5814 5817 5821 5824 5828
5852 5850 5848 5846 5844 5841 5838 5835 5832 5829 5825 5821 5818 5815 5813 5810 5806 5803 5801 5799 5797 5795 5794 5792 5791 5790 5790 5789 5789 5788 5788 5789 5789 5791 5793 5796 5800 5803 5806 5809 5813 5817 5821
5848 5845 5843 5840 5837 5834 5831 5827 5824 5820 5816 5812 5809 5805 5802 5799 5796 5793 5790 5788 5786 5784 5783 5782 5781 5780 5780 5779 5779 5779 5780 5781 5781 5782 5785 5788 5792 5795 5799 5801 5805 5809 5813
5842 5840 5837 5834 5830 5827 5823 5819 5816 5812 5807 5803 5799 5795 5791 5788 5785 5782 5779 5777 5775 5773 5771 5770 5769 5769 5769 5769 5769 5769 5770 5772 5773 5774 5777 5780 5783 5787 5791 5794 5798 5802 5806
5837 5834 5831 5827 5824 5819 5815 5811 5807 5802 5798 5793 5789 5785 5781 5777 5774 5770 5767 5765 5763 5761 5759 5758 5757 5757 5757 5757 5758 5759 5760 5761 5764 5766 5768 5770 5773 5777 5782 5786 5790 5794 5799
5833 5829 5825 5821 5817 5812 5807 5802 5798 5793 5788 5783 5779 5774 5770 5766 5763 5759 5756 5754 5751 5749 5747 5746 5745 5745 5745 5745 5747 5748 5750 5751 5754 5756 5759 5761 5764 5768 5772 5777 5782 5786 5791
5829 5824 5820 5815 5810 5805 5800 5794 5789 5784 5779 5774 5769 5764 5760 5756 5752 5749 5746 5743 5740 5737 5735 5734 5733 5733 5733 5733 5734 5736 5738 5740 5743 5746 5749 5752 5754 5758 5763 5768 5773 5778 5784
5824 5820 5814 5809 5804 5798 5792 5787 5781 5776 5770 5765 5760 5754 5750 5746 5742 5738 5734 5731 5729 5726 5724 5722 5721 5721 5721 5721 5722 5724 5726 5728 5731 5734 5738 5741 5745 5749 5754 5758 5764 5769 5775
5820 5815 5809 5803 5797 5791 5785 5779 5773 5767 5762 5756 5751 5745 5740 5736 5732 5728 5724 5721 5718 5715 5713 5710 5709 5708 5708 5708 5709 5710 5712 5715 5718 5721 5726 5730 5734 5739 5744 5748 5754 5760 5766
5816 5810 5804 5798 5792 5785 5778 5772 5765 5759 5753 5747 5741 5736 5730 5726 5721 5717 5713 5709 5706 5703 5700 5698 5696 5694 5694 5694 5695 5696 5698 5701 5704 5708 5712 5718 5723 5728 5733 5738 5743 5750 5757
5812 5806 5799 5793 5786 5778 5771 5764 5757 5750 5744 5737 5731 5725 5720 5714 5709 5705 5701 5697 5693 5690 5687 5684 5681 5679 5678 5678 5678 5680 5682 5686 5689 5694 5698 5704 5709 5716 5722 5728 5733 5740 5747
5807 5800 5794 5787 5779 5771 5764 5756 5748 5741 5734 5727 5721 5714 5709 5703 5698 5693 5689 5684 5680 5675 5672 5668 5665 5662 5660 5659 5660 5662 5664 5668 5672 5677 5683 5689 5694 5701 5708 5715 5722 5729 5736
5801 5795 5787 5780 5772 5763 5755 5747 5739 5732 5724 5717 5711 5704 5698 5692 5687 5681 5676 5671 5665 5661 5656 5652 5648 5644 5641 5640 5640 5641 5644 5648 5653 5659 5665 5672 5679 5687 5695 5702 5710 5717 5724
5795 5788 5780 5772 5764 5755 5747 5739 5730 5722 5715 5707 5701 5694 5687 5681 5675 5669 5663 5657 5651 5645 5639 5634 5629 5625 5622 5620 5619 5620 5622 5626 5632 5639 5646 5654 5662 5671 5679 5688 5696 5705 5712
5789 5781 5773 5765 5756 5747 5738 5730 5721 5713 5705 5698 5690 5683 5677 5670 5663 5656 5649 5642 5635 5629 5622 5616 5611 5605 5601 5599 5598 5599 5601 5605 5611 5618 5627 5635 5644 5653 5663 5672 5682 5691 5700
5783 5775 5766 5757 5748 5739 5730 5721 5713 5704 5696 5688 5681 5673 5666 5659 5651 5644 5636 5629 5621 5613 5606 5599 5593 5587 5582 5580 5579 5579 5581 5586 5592 5599 5607 5615 5625 5636 5646 5656 5667 5677 5686
5777 5768 5759 5749 5740 5731 5722 5713 5704 5696 5687 5680 5672 5664 5656 5648 5640 5632 5624 5616 5607 5599 5591 5584 5577 5571 5566 5562 5561 5561 5563 5568 5574 5581 5588 5597 5607 5618 5629 5641 5651 5662 5673
5769 5760 5751 5742 5733 5723 5714 5705 5696 5687 5679 5671 5663 5655 5647 5639 5630 5621 5613 5604 5595 5587 5579 5571 5563 5557 5551 5547 5545 5545 5546 5551 5557 5563 5571 5580 5591 5602 5614 5625 5637 5648 5659
5762 5754 5745 5735 5726 5717 5707 5698 5689 5680 5672 5663 5655 5647 5638 5630 5621 5612 5603 5594 5585 5577 5568 5560 5552 5545 5539 5534 5531 5530 5532 5536 5541 5548 5556 5566 5576 5588 5600 5611 5623 5635 5645
5756 5747 5739 5729 5720 5710 5701 5691 5682 5673 5665 5656 5648 5639 5630 5621 5612 5603 5594 5585 5577 5568 5559 5551 5543 5536 5530 5525 5522 5520 5522 5525 5529 5536 5544 5553 5564 5574 5585 5597 5609 5621 5632
5750 5741 5732 5723 5714 5704 5695 5685 5676 5667 5658 5649 5641 5632 5623 5614 5605 5596 5587 5578 5569 5561 5552 5544 5537 5530 5524 5519 5516 5514 5514 5517 5520 5526 5534 5543 5553 5564 5574 5585 5596 5608 5620
5744 5736 5727 5718 5708 5699 5689 5680 5670 5661 5652 5643 5635 5626 5616 5607 5598 5589 5580 5571 5563 5555 5547 5539 5532 5525 5519 5515 5512 5510 5509 5511 5514 5519 5526 5535 5545 5555 5565 5576 5586 5598 5609
5739 5730 5722 5713 5703 5693 5684 5674 5665 5656 5647 5638 5629 5620 5611 5601 5592 5583 5575 5566 5558 5550 5543 5536 5529 5522 5517 5512 5509 5507 5507 5508 5511 5515 5522 5530 5539 5548 5558 5568 5578 5589 5600
5733 5725 5717 5708 5698 5689 5679 5669 5660 5651 5642 5633 5624 5615 5606 5597 5587 5578 5570 5562 5554 5547 5540 5533 5526 5520 5515 5511 5508 5506 5505 5507 5510 5514 5520 5528 5536 5544 5553 5563 5572 5582 5593
5728 5720 5711 5703 5694 5684 5674 5664 5655 5646 5637 5629 5620 5611 5602 5593 5584 5575 5566 5558 5551 5544 5537 5530 5524 5519 5514 5511 5508 5506 5506 5507 5510 5515 5520 5527 5534 5541 5550 5558 5567 5576 5586
5723 5715 5706 5698 5689 5679 5670 5660 5651 5642 5634 5625 5617 5608 5599 5590 5581 5572 5563 5555 5548 5541 5534 5528 5522 5517 5513 5510 5508 5507 5507 5509 5512 5516 5521 5527 5533 5540 5547 5555 5563 5571 5580